Location: Anjeux
(47.8815°N, 6.2076°E)
Time: 13:05:52
(UTC+00:00)

ISS - Pass Details

Date: 05 March 2021
Orbit: 418 x 422 km, 51.6° (Epoch: 15 April)

Event Time Altitude Azimuth Distance (km) Brightness Sun altitude
Exits shadow 05:27:00 - 294° (WNW) 1,604 -1.4 -7.7°
Reaches altitude 10° 05:27:15 10° 294° (WNW) 1,501 -1.5 -7.7°
Maximum altitude 05:30:37 73° 20° (NNE) 441 -3.6 -7.1°
Drops below altitude 10° 05:33:53 11° 106° (ESE) 1,460 0.5 -6.6°
Sets 05:36:05 0° 108° (ESE) 2,359 1.8 -6.2°
